"startDT [UTC]","vpos","CH4 [ppm]","stdev(CH4) [ppm]","CO2 [ppm]","stdev(CO2) [ppm]","H2O_reported [%]","stdev(H2O_reported)","CavityPressure [torr]","CavityTemp [C]","OutletValve","CH4_dry [ppm]","CO2_dry [ppm]","DasTemp [C]","EtalonTemp [C]","WarmBoxTemp [C]","MPVPosition","T_ECpre [C]","T_EC1 [C]","T_EC2 [C]","p_inlet [hPa]","p_in [hPa]","p_out [hPa]","T_inlet [C]","RH_inlet [%]","dwpt_inlet [C]","T_vent [C]","RH_vent [%]","dwpt_vent [C]","flow_vent [l min-1]","flow_inlet [l min-1]","dwpt_sample [C]","T_room [C]"
2015-10-17 00:00:00,0.0,1.96080,0.00058,400.682,0.355,0.1930,0.0016,140.000,45.000,31698.11595,1.96463,401.607,36.062,45.068,45.000,0.00,0.09,-272.74,-272.81,-9,521,-942,21.0,6.0,-18.0,21.3,6.0,-17.7,5.73,1.77,-8.4,27.7
2015-10-17 00:01:00,0.0,1.95758,0.00109,400.514,0.168,0.1948,0.0015,140.001,45.000,31698.32751,1.96147,401.450,36.063,45.068,45.000,0.00,0.09,-272.75,-272.80,-10,521,-942,21.0,6.0,-18.0,21.3,6.0,-17.6,5.73,1.98,-8.4,27.7
2015-10-17 00:02:00,0.0,1.95435,0.00088,400.749,0.234,0.1979,0.0021,140.001,45.000,31696.14331,1.95826,401.708,36.063,45.068,45.000,0.00,0.09,-272.75,-272.81,-8,521,-942,21.0,6.1,-17.7,21.3,6.1,-17.5,5.73,2.06,-8.4,27.7
2015-10-17 00:03:00,0.0,1.95168,0.00104,401.072,0.224,0.1990,0.0014,139.998,45.000,31696.65369,1.95563,402.029,36.064,45.068,45.000,0.00,0.09,-272.74,-272.81,-8,521,-942,21.0,6.1,-17.7,21.3,6.2,-17.4,5.73,1.74,-8.4,27.7
2015-10-17 00:04:00,0.0,1.94821,0.00088,401.518,0.059,0.1952,0.0027,140.000,45.000,31697.53959,1.95206,402.461,36.064,45.068,45.000,0.00,0.09,-272.75,-272.80,-10,521,-942,21.0,6.0,-17.9,21.3,6.1,-17.4,5.73,2.07,-8.4,27.7
2015-10-17 00:05:00,0.0,1.94695,0.00069,401.898,0.123,0.1926,0.0018,140.001,45.000,31698.60113,1.95061,402.825,36.062,45.068,45.000,0.00,0.09,-272.75,-272.81,-9,521,-942,21.0,5.9,-18.1,21.3,6.0,-17.7,5.73,1.97,-8.4,27.7
2015-10-17 00:06:00,0.0,1.95227,0.00225,402.073,0.150,0.1916,0.0018,139.999,45.000,31699.12831,1.95582,403.007,36.063,45.068,45.000,0.00,0.09,-272.75,-272.81,-8,521,-942,21.0,5.9,-18.1,21.3,6.0,-17.8,5.73,1.77,-8.4,27.7
2015-10-17 00:07:00,0.0,1.95111,0.00194,401.023,0.379,0.1904,0.0013,139.998,45.000,31698.51450,1.95494,401.966,36.067,45.068,45.000,0.00,0.09,-272.75,-272.81,-9,521,-942,21.0,5.9,-18.2,21.3,5.9,-17.8,5.73,2.12,-8.4,27.7
2015-10-17 00:08:00,0.0,1.94778,0.00078,401.119,0.261,0.1892,0.0016,139.999,45.000,31697.55058,1.95141,402.030,36.063,45.068,45.000,0.00,0.09,-272.74,-272.81,-10,521,-942,21.0,5.8,-18.3,21.3,5.9,-17.9,5.73,1.88,-8.4,27.7
2015-10-17 00:09:00,0.0,1.94716,0.00100,401.499,0.207,0.1891,0.0018,139.999,45.000,31694.69240,1.95086,402.403,36.057,45.068,45.000,0.00,0.09,-272.75,-272.81,-8,521,-942,21.0,5.8,-18.3,21.3,5.9,-17.9,5.73,1.84,-8.4,27.7
2015-10-17 00:10:00,0.0,1.94584,0.00035,401.737,0.061,0.1903,0.0019,140.003,45.000,31697.05487,1.94953,402.659,36.020,45.068,45.000,0.00,0.09,-272.75,-272.80,-9,521,-942,21.1,5.9,-18.2,21.3,5.9,-17.8,5.73,2.14,-8.4,27.7
2015-10-17 00:11:00,0.0,1.94700,0.00137,401.860,0.070,0.1922,0.0015,139.999,45.000,31693.03039,1.95064,402.792,36.001,45.068,45.000,0.00,0.09,-272.74,-272.80,-10,521,-942,21.1,5.9,-18.1,21.3,6.0,-17.8,5.73,1.78,-8.4,27.7
2015-10-17 00:12:00,0.0,1.95137,0.00444,402.239,0.389,0.1952,0.0019,139.998,45.000,31693.68927,1.95497,403.180,36.002,45.068,45.000,0.00,0.09,-272.76,-272.80,-9,522,-942,21.0,6.0,-17.9,21.3,6.0,-17.7,5.73,1.95,-8.4,27.7
2015-10-17 00:13:00,0.0,1.95584,0.00293,402.571,0.322,0.1956,0.0018,139.999,45.000,31695.23183,1.95945,403.513,36.004,45.069,45.000,0.00,0.09,-272.75,-272.81,-9,521,-942,21.0,6.1,-17.8,21.3,6.1,-17.5,5.73,2.08,-8.4,27.7
2015-10-17 00:14:00,0.0,1.95228,0.00264,401.965,0.414,0.1960,0.0013,140.000,45.000,31696.55707,1.95636,402.939,36.002,45.068,45.000,0.00,0.09,-272.74,-272.80,-10,521,-942,21.1,6.1,-17.8,21.4,6.1,-17.5,5.73,1.74,-8.4,27.7
2015-10-17 00:15:00,0.0,1.95054,0.00119,401.598,0.107,0.1969,0.0017,139.998,45.000,31695.43953,1.95426,402.550,36.001,45.068,45.000,0.00,0.09,-272.76,-272.81,-9,522,-942,21.1,6.1,-17.7,21.3,6.1,-17.5,5.73,2.06,-8.4,27.8
2015-10-17 00:16:00,0.0,1.95187,0.00142,401.800,0.199,0.2028,0.0021,140.000,45.000,31696.08672,1.95574,402.779,36.002,45.068,45.000,0.00,0.09,-272.74,-272.81,-8,521,-942,21.1,6.2,-17.5,21.3,6.2,-17.3,5.73,1.97,-8.4,27.8
2015-10-17 00:17:00,0.0,1.95126,0.00116,401.978,0.176,0.2106,0.0024,139.999,45.000,31698.18649,1.95530,402.997,36.016,45.068,45.000,0.00,0.09,-272.74,-272.80,-10,521,-942,21.0,6.5,-17.0,21.3,6.4,-16.9,5.73,1.77,-8.4,27.7
2015-10-17 00:18:00,0.0,1.95192,0.00235,402.046,0.447,0.2162,0.0024,139.999,45.000,31697.16495,1.95618,403.103,36.031,45.068,45.000,0.00,0.09,-272.75,-272.80,-9,522,-942,21.1,6.7,-16.7,21.3,6.6,-16.6,5.73,2.13,-8.4,27.7
2015-10-17 00:19:00,0.0,1.95394,0.00289,402.203,0.422,0.2200,0.0017,139.999,45.000,31697.53047,1.95800,403.262,36.036,45.068,45.000,0.00,0.09,-272.75,-272.82,-8,521,-942,21.1,6.8,-16.5,21.3,6.8,-16.3,5.73,1.85,-8.4,27.7
2015-10-17 00:20:00,0.0,1.95806,0.00199,402.847,0.234,0.2172,0.0027,140.001,45.000,31698.48450,1.96219,403.898,36.044,45.068,45.000,0.00,0.09,-272.74,-272.80,-9,521,-942,21.0,6.7,-16.6,21.3,6.8,-16.3,5.73,1.87,-8.4,27.8
2015-10-17 00:21:00,0.0,1.95722,0.00123,403.043,0.095,0.2137,0.0013,140.001,45.000,31697.63115,1.96149,404.081,36.037,45.068,45.000,0.00,0.09,-272.75,-272.81,-10,521,-942,21.1,6.6,-16.8,21.3,6.7,-16.5,5.73,2.12,-8.4,27.7
2015-10-17 00:22:00,0.0,1.95542,0.00128,402.976,0.185,0.2104,0.0016,139.998,45.000,31697.63171,1.95956,404.000,36.051,45.068,45.000,0.00,0.09,-272.75,-272.82,-9,521,-942,21.1,6.5,-17.0,21.3,6.6,-16.6,5.73,1.76,-8.4,27.8
2015-10-17 00:23:00,0.0,1.95383,0.00076,403.309,0.073,0.2090,0.0022,139.999,45.000,31696.85185,1.95784,404.325,36.060,45.068,45.000,0.00,0.09,-272.75,-272.80,-9,521,-942,21.1,6.4,-17.1,21.3,6.5,-16.7,5.73,2.00,-8.4,27.7
2015-10-17 00:24:00,0.0,1.95497,0.00195,403.256,0.122,0.2115,0.0022,139.997,45.000,31695.42717,1.95903,404.288,36.063,45.068,45.000,0.00,0.09,-272.74,-272.81,-10,521,-942,21.1,6.5,-16.9,21.4,6.5,-16.7,5.73,2.04,-8.4,27.7
2015-10-17 00:25:00,0.0,1.95474,0.00155,403.358,0.128,0.2129,0.0016,139.998,45.000,31696.61491,1.95871,404.402,36.064,45.068,45.000,0.00,0.09,-272.75,-272.80,-9,522,-942,21.1,6.5,-16.9,21.4,6.6,-16.6,5.73,1.75,-8.4,27.7
2015-10-17 00:26:00,0.0,1.95453,0.00158,403.455,0.158,0.2132,0.0024,140.001,45.000,31697.79019,1.95884,404.484,36.065,45.068,45.000,0.00,0.09,-272.76,-272.81,-9,521,-942,21.1,6.5,-16.9,21.3,6.6,-16.6,5.73,2.10,-8.4,27.8
2015-10-17 00:27:00,0.0,1.95479,0.00151,403.663,0.137,0.2143,0.0021,140.000,45.000,31695.85326,1.95889,404.708,36.063,45.068,45.000,0.00,0.09,-272.74,-272.81,-10,522,-942,21.1,6.6,-16.8,21.4,6.6,-16.5,5.73,1.91,-8.4,27.7
2015-10-17 00:28:00,0.0,1.96549,0.00334,402.038,0.975,0.2184,0.0017,139.999,45.000,31697.20750,1.96940,403.150,36.063,45.068,45.000,0.00,0.09,-272.75,-272.81,-9,522,-942,21.1,6.7,-16.6,21.4,6.7,-16.4,5.73,1.81,-8.4,27.7
2015-10-17 00:29:00,0.0,1.96326,0.00245,400.641,0.450,0.2237,0.0020,140.001,45.000,31697.81884,1.96783,401.703,36.061,45.068,45.000,0.00,0.09,-272.76,-272.81,-9,521,-942,21.1,6.9,-16.3,21.4,6.8,-16.1,5.73,2.14,-8.4,27.7
2015-10-17 00:30:00,0.0,1.96380,0.00347,400.788,0.679,0.2278,0.0022,140.000,45.000,31698.94235,1.96787,401.917,36.046,45.068,45.000,0.00,0.09,-272.74,-272.81,-10,521,-942,21.1,7.0,-16.1,21.4,7.0,-15.9,5.73,1.79,-8.4,27.7
2015-10-17 00:31:00,0.0,1.97002,0.00080,400.651,0.192,0.2333,0.0027,140.001,45.000,31698.09651,1.97449,401.773,36.027,45.068,45.000,0.00,0.09,-272.75,-272.80,-10,521,-942,21.1,7.2,-15.8,21.4,7.1,-15.6,5.73,1.94,-8.4,27.7
2015-10-17 00:32:00,0.0,1.96322,0.00273,400.804,0.059,0.2383,0.0020,140.000,45.000,31697.90064,1.96822,401.959,36.027,45.068,45.000,0.00,0.09,-272.75,-272.82,-9,521,-942,21.1,7.3,-15.6,21.4,7.3,-15.4,5.73,2.08,-8.4,27.7
2015-10-17 00:33:00,0.0,1.96038,0.00109,400.917,0.114,0.2322,0.0033,140.001,45.000,31699.80377,1.96480,402.049,36.019,45.069,45.000,0.00,0.09,-272.75,-272.81,-10,521,-942,21.1,7.1,-15.8,21.4,7.2,-15.5,5.73,1.74,-8.4,27.7
2015-10-17 00:34:00,0.0,1.96333,0.00166,401.032,0.247,0.2220,0.0028,139.999,45.000,31698.89054,1.96749,402.104,36.033,45.069,45.000,0.00,0.09,-272.74,-272.80,-10,521,-942,21.1,6.8,-16.4,21.4,7.0,-15.9,5.73,2.07,-8.4,27.7
2015-10-17 00:35:00,0.0,1.97375,0.00583,401.190,0.392,0.2187,0.0026,139.999,45.000,31699.29225,1.97762,402.245,36.037,45.069,45.000,0.00,0.09,-272.74,-272.82,-9,521,-942,21.1,6.7,-16.6,21.4,6.8,-16.2,5.73,1.96,-8.4,27.7
2015-10-17 00:36:00,0.0,1.97602,0.00243,401.028,0.171,0.2241,0.0023,140.000,45.000,31700.86803,1.98067,402.123,36.053,45.068,45.000,0.00,0.09,-272.75,-272.81,-10,521,-942,21.1,6.9,-16.3,21.4,6.9,-16.1,5.73,1.77,-8.4,27.7
2015-10-17 00:37:00,0.0,1.97148,0.00100,400.797,0.056,0.2322,0.0024,140.003,45.000,31700.73368,1.97605,401.922,36.061,45.068,45.000,0.00,0.09,-272.75,-272.80,-11,521,-942,21.1,7.1,-15.9,21.4,7.1,-15.7,5.73,2.14,-8.4,27.8
2015-10-17 00:38:00,0.0,1.96703,0.00297,401.198,0.412,0.2384,0.0020,140.000,45.000,31700.75910,1.97188,402.341,36.063,45.068,45.000,0.00,0.09,-272.74,-272.80,-9,521,-942,21.1,7.3,-15.5,21.4,7.3,-15.4,5.73,1.82,-8.4,27.8
2015-10-17 00:39:00,0.0,1.96124,0.00224,402.046,0.225,0.2398,0.0023,139.998,45.000,31699.68346,1.96605,403.204,36.062,45.068,45.000,0.00,0.09,-272.76,-272.81,-10,521,-942,21.1,7.4,-15.5,21.4,7.4,-15.2,5.73,1.90,-8.4,27.8
2015-10-17 00:40:00,0.0,1.96045,0.00115,402.470,0.131,0.2333,0.0024,140.002,45.000,31702.06942,1.96489,403.599,36.062,45.068,45.000,0.00,0.09,-272.75,-272.81,-11,521,-942,21.1,7.2,-15.8,21.4,7.3,-15.4,5.73,2.10,-8.4,27.8
2015-10-17 00:41:00,0.0,1.95980,0.00224,402.373,0.251,0.2256,0.0023,139.998,45.000,31700.75936,1.96431,403.474,36.059,45.068,45.000,0.00,0.09,-272.74,-272.80,-10,522,-942,21.1,6.9,-16.2,21.4,7.1,-15.7,5.73,1.74,-8.4,27.8
2015-10-17 00:42:00,0.0,1.95828,0.00103,402.510,0.183,0.2168,0.0031,139.999,45.000,31700.59838,1.96255,403.572,36.038,45.068,45.000,0.00,0.09,-272.75,-272.80,-10,521,-942,21.1,6.7,-16.6,21.4,6.8,-16.1,5.73,2.04,-8.4,27.8
2015-10-17 00:43:00,0.0,1.95621,0.00063,402.150,0.057,0.2092,0.0026,140.000,45.000,31701.25344,1.96029,403.169,36.058,45.068,45.000,0.00,0.09,-272.75,-272.81,-11,521,-942,21.1,6.4,-17.1,21.4,6.6,-16.6,5.73,1.99,-8.4,27.8
2015-10-17 00:44:00,0.0,1.95463,0.00041,402.019,0.105,0.2057,0.0016,140.000,45.000,31703.86661,1.95866,403.019,36.065,45.068,45.000,0.00,0.09,-272.74,-272.80,-10,522,-942,21.2,6.3,-17.3,21.4,6.4,-16.8,5.73,1.76,-8.4,27.8
2015-10-17 00:45:00,0.0,1.95502,0.00073,402.155,0.047,0.2039,0.0011,140.000,45.000,31703.48949,1.95890,403.147,36.064,45.068,45.000,0.00,0.09,-272.75,-272.81,-9,521,-942,21.1,6.2,-17.4,21.4,6.3,-17.0,5.73,2.13,-8.4,27.8
2015-10-17 00:46:00,0.0,1.95425,0.00102,401.704,0.223,0.2050,0.0019,140.000,45.000,31701.18630,1.95830,402.703,36.071,45.068,45.000,0.00,0.09,-272.75,-272.82,-11,521,-942,21.1,6.2,-17.4,21.4,6.3,-17.1,5.73,1.83,-8.4,27.7
2015-10-17 00:47:00,0.0,1.95353,0.00103,401.547,0.173,0.2062,0.0017,140.000,45.000,31700.71657,1.95752,402.553,36.081,45.068,45.000,0.00,0.09,-272.74,-272.80,-10,522,-942,21.1,6.3,-17.3,21.4,6.4,-16.9,5.73,1.89,-8.4,27.8
2015-10-17 00:48:00,0.0,1.95383,0.00059,401.522,0.090,0.2076,0.0016,139.997,45.000,31699.48495,1.95781,402.529,36.090,45.068,45.000,0.00,0.09,-272.75,-272.81,-10,521,-942,21.1,6.3,-17.2,21.4,6.4,-16.9,5.73,2.10,-8.4,27.8
2015-10-17 00:49:00,0.0,1.95287,0.00080,401.369,0.110,0.2100,0.0014,139.999,45.000,31702.16632,1.95691,402.389,36.088,45.068,45.000,0.00,0.09,-272.75,-272.81,-11,521,-942,21.1,6.4,-17.1,21.4,6.5,-16.7,5.73,1.74,-8.4,27.7
2015-10-17 00:50:00,0.0,1.95224,0.00091,401.032,0.123,0.2126,0.0017,139.998,45.000,31701.92856,1.95644,402.070,36.112,45.068,45.000,0.00,0.09,-272.76,-272.80,-11,522,-942,21.1,6.5,-16.9,21.4,6.5,-16.7,5.73,2.06,-8.4,27.8
2015-10-17 00:51:00,0.0,1.95114,0.00038,400.812,0.053,0.2144,0.0015,140.001,45.000,31702.29166,1.95530,401.853,36.108,45.068,45.000,0.00,0.09,-272.75,-272.80,-9,522,-942,21.2,6.5,-16.8,21.4,6.6,-16.5,5.73,1.94,-8.4,27.8
2015-10-17 00:52:00,0.0,1.94941,0.00074,400.862,0.075,0.2163,0.0025,139.999,45.000,31701.21354,1.95361,401.907,36.114,45.068,45.000,0.00,0.09,-272.75,-272.80,-11,521,-942,21.1,6.6,-16.8,21.4,6.6,-16.4,5.73,1.80,-8.4,27.8
2015-10-17 00:53:00,0.0,1.94970,0.00052,400.990,0.052,0.2184,0.0013,140.000,45.000,31702.98634,1.95393,402.048,36.124,45.068,45.000,0.00,0.09,-272.75,-272.81,-11,521,-942,21.2,6.7,-16.6,21.4,6.7,-16.3,5.73,2.13,-8.4,27.7
2015-10-17 00:54:00,0.0,1.94876,0.00039,400.932,0.039,0.2206,0.0014,139.998,45.000,31703.19541,1.95305,402.000,36.124,45.068,45.000,0.00,0.09,-272.74,-272.81,-9,521,-942,21.2,6.7,-16.5,21.5,6.7,-16.2,5.73,1.78,-8.4,27.8
2015-10-17 00:55:00,0.0,1.95045,0.00186,400.983,0.088,0.2222,0.0024,140.000,45.000,31704.09921,1.95456,402.057,36.123,45.068,45.000,0.00,0.09,-272.75,-272.80,-10,521,-942,21.2,6.7,-16.4,21.5,6.8,-16.1,5.73,1.96,-8.4,27.8
2015-10-17 00:56:00,0.0,1.95216,0.00149,401.115,0.082,0.2254,0.0016,140.001,45.000,31703.21495,1.95664,402.213,36.109,45.068,45.000,0.00,0.09,-272.74,-272.81,-11,522,-942,21.2,6.8,-16.3,21.5,6.9,-16.0,5.73,2.05,-8.4,27.8
2015-10-17 00:57:00,0.0,1.94877,0.00028,400.913,0.031,0.2282,0.0020,139.995,45.000,31703.98555,1.95320,402.018,36.089,45.068,45.000,0.00,0.09,-272.74,-272.81,-9,522,-942,21.2,6.9,-16.1,21.5,7.0,-15.8,5.73,1.74,-8.4,27.8
2015-10-17 00:58:00,0.0,1.94729,0.00076,400.991,0.052,0.2310,0.0022,140.001,45.000,31703.49305,1.95182,402.109,36.066,45.068,45.000,0.00,0.09,-272.75,-272.80,-10,522,-942,21.2,7.0,-15.9,21.5,7.1,-15.7,5.73,2.12,-8.4,27.8
2015-10-17 00:59:00,0.0,1.94557,0.00093,401.219,0.110,0.2366,0.0024,140.001,45.000,31706.69567,1.95021,402.360,36.063,45.069,45.000,0.00,0.09,-272.75,-272.81,-11,522,-942,21.2,7.2,-15.7,21.5,7.2,-15.5,5.73,1.84,-8.4,27.8
2015-10-17 01:00:00,0.0,1.94367,0.00042,401.509,0.096,0.2435,0.0027,139.998,45.000,31706.30519,1.94835,402.692,36.064,45.069,45.001,0.00,0.09,-272.75,-272.81,-9,522,-942,21.2,7.4,-15.4,21.5,7.4,-15.2,5.73,1.89,-8.4,27.8
2015-10-17 01:01:00,0.0,1.94328,0.00033,401.355,0.071,0.2533,0.0031,140.000,45.000,31706.77110,1.94817,402.588,36.077,45.069,45.001,0.00,0.09,-272.75,-272.81,-10,521,-942,21.2,7.7,-14.9,21.5,7.6,-14.8,5.73,2.09,-8.4,27.8
2015-10-17 01:02:00,0.0,1.94333,0.00046,401.172,0.040,0.2585,0.0022,140.002,45.000,31707.91244,1.94829,402.428,36.097,45.069,45.000,0.00,0.09,-272.75,-272.81,-11,522,-942,21.2,7.8,-14.6,21.5,7.8,-14.4,5.73,1.74,-8.4,27.9
2015-10-17 01:03:00,0.0,1.94284,0.00048,401.301,0.129,0.2512,0.0031,140.002,45.000,31708.08614,1.94770,402.516,36.120,45.069,45.000,0.00,0.09,-272.76,-272.81,-9,522,-942,21.2,7.6,-14.9,21.5,7.8,-14.5,5.73,2.10,-8.4,27.9
2015-10-17 01:04:00,0.0,1.94286,0.00049,401.469,0.114,0.2425,0.0024,139.997,45.000,31705.59066,1.94750,402.653,36.127,45.068,45.000,0.00,0.09,-272.74,-272.81,-11,522,-942,21.2,7.3,-15.4,21.5,7.5,-15.0,5.73,1.85,-8.4,27.9
2015-10-17 01:05:00,0.0,1.94777,0.00435,401.516,0.629,0.2378,0.0016,139.998,45.000,31706.78180,1.95190,402.642,36.160,45.068,45.000,0.00,0.09,-272.75,-272.80,-10,522,-942,21.3,7.2,-15.6,21.5,7.3,-15.2,5.73,1.91,-8.4,27.9
2015-10-17 01:06:00,0.0,1.96171,0.00622,403.452,0.355,0.2368,0.0016,140.001,45.000,31706.46090,1.96640,404.607,36.177,45.068,45.000,0.00,0.09,-272.76,-272.81,-9,522,-942,21.3,7.2,-15.7,21.5,7.2,-15.3,5.73,2.06,-8.4,27.9
2015-10-17 01:07:00,0.0,1.96257,0.01065,403.158,0.183,0.2358,0.0013,139.997,45.000,31706.01739,1.96567,404.297,36.181,45.068,45.000,0.00,0.09,-272.75,-272.80,-11,522,-942,21.3,7.1,-15.7,21.5,7.2,-15.4,5.73,1.74,-8.4,27.9
2015-10-17 01:08:00,0.0,1.97304,0.00944,402.267,0.621,0.2380,0.0020,139.997,45.000,31705.01195,1.97884,403.454,36.186,45.068,45.000,0.00,0.09,-272.75,-272.80,-10,522,-942,21.3,7.2,-15.6,21.5,7.2,-15.3,5.73,2.13,-8.4,27.9
2015-10-17 01:09:00,0.0,1.97023,0.00399,401.951,0.191,0.2447,0.0036,139.999,45.000,31707.32648,1.97484,403.139,36.193,45.068,45.000,0.00,0.09,-272.75,-272.81,-9,522,-942,21.3,7.4,-15.3,21.5,7.3,-15.2,5.73,1.79,-8.4,28.0
2015-10-17 01:10:00,0.0,1.97009,0.00196,402.340,0.258,0.2534,0.0024,139.999,45.000,31709.39323,1.97495,403.565,36.188,45.068,45.000,0.00,0.09,-272.75,-272.80,-11,522,-942,21.3,7.6,-14.9,21.6,7.6,-14.7,5.73,1.99,-8.4,27.9
2015-10-17 01:11:00,0.0,1.97291,0.00132,402.617,0.070,0.2540,0.0028,140.000,45.000,31710.33305,1.97781,403.853,36.187,45.068,45.000,0.00,0.09,-272.74,-272.81,-10,522,-942,21.3,7.7,-14.8,21.6,7.7,-14.5,5.73,1.99,-8.4,28.0
2015-10-17 01:12:00,0.0,1.96876,0.00204,402.540,0.102,0.2527,0.0018,140.002,45.000,31710.51153,1.97388,403.775,36.187,45.068,45.000,0.00,0.09,-272.75,-272.80,-10,522,-942,21.3,7.6,-14.9,21.6,7.7,-14.6,5.73,1.78,-8.4,28.0
2015-10-17 01:13:00,0.0,1.96204,0.00212,402.256,0.111,0.2552,0.0018,139.998,45.000,31711.10978,1.96731,403.505,36.210,45.068,45.000,0.00,0.09,-272.76,-272.81,-11,522,-942,21.3,7.7,-14.8,21.5,7.8,-14.5,5.73,2.13,-8.4,28.0
2015-10-17 01:14:00,0.0,1.96180,0.00378,402.037,0.074,0.2602,0.0017,139.998,45.000,31712.38058,1.96664,403.302,36.228,45.069,45.000,0.00,0.09,-272.74,-272.81,-10,522,-942,21.3,7.8,-14.6,21.6,7.8,-14.4,5.73,1.74,-8.4,28.0
2015-10-17 01:15:00,0.0,1.98234,0.01925,402.555,0.343,0.2602,0.0022,140.001,45.000,31714.27259,1.98743,403.818,36.240,45.068,45.000,0.00,0.09,-272.75,-272.80,-10,522,-942,21.3,7.8,-14.5,21.6,7.9,-14.3,5.73,2.07,-8.4,28.0
2015-10-17 01:16:00,0.0,1.96980,0.00152,402.485,0.141,0.2617,0.0023,139.999,45.000,31715.39591,1.97461,403.758,36.250,45.068,45.000,0.00,0.09,-272.75,-272.82,-11,522,-942,21.3,7.9,-14.5,21.6,7.9,-14.2,5.73,1.89,-8.4,28.0
2015-10-17 01:17:00,0.0,1.98203,0.00465,402.655,0.079,0.2678,0.0021,140.000,45.000,31716.32869,1.98707,403.956,36.248,45.068,45.000,0.00,0.09,-272.75,-272.81,-9,522,-942,21.3,8.0,-14.2,21.6,8.1,-14.0,5.73,1.87,-8.4,28.0
2015-10-17 01:18:00,0.0,1.97570,0.00391,402.829,0.036,0.2722,0.0026,139.997,45.000,31716.39099,1.98125,404.155,36.250,45.068,45.000,0.00,0.09,-272.74,-272.80,-10,522,-942,21.3,8.2,-14.0,21.6,8.2,-13.8,5.73,2.09,-8.4,27.9
2015-10-17 01:19:00,0.0,1.98759,0.00658,402.939,0.087,0.2735,0.0017,139.999,45.000,31715.28336,1.99256,404.277,36.254,45.068,45.000,0.00,0.09,-272.75,-272.81,-11,522,-942,21.4,8.2,-13.9,21.6,8.3,-13.7,5.73,1.73,-8.4,27.9
2015-10-17 01:20:00,0.0,1.98020,0.00183,402.862,0.049,0.2696,0.0021,139.998,45.000,31714.73639,1.98569,404.177,36.278,45.068,45.000,0.00,0.09,-272.76,-272.81,-10,522,-942,21.3,8.1,-14.2,21.6,8.2,-13.8,5.73,2.12,-8.3,28.0
2015-10-17 01:21:00,0.0,1.97801,0.00119,402.712,0.125,0.2627,0.0033,139.999,45.000,31717.83556,1.98332,403.999,36.300,45.068,45.000,0.00,0.09,-272.75,-272.80,-11,522,-942,21.3,7.9,-14.5,21.6,8.0,-14.1,5.73,1.81,-8.4,28.0
2015-10-17 01:22:00,0.0,1.96962,0.00275,402.432,0.144,0.2558,0.0020,140.002,45.000,31717.43024,1.97492,403.683,36.310,45.068,45.000,0.00,0.09,-272.75,-272.80,-11,522,-942,21.4,7.6,-14.8,21.6,7.8,-14.3,5.73,1.95,-8.3,28.0
2015-10-17 01:23:00,0.0,1.96498,0.00136,402.251,0.072,0.2517,0.0028,139.998,45.000,31717.44156,1.96999,403.475,36.312,45.068,45.000,0.00,0.09,-272.75,-272.81,-10,522,-942,21.4,7.6,-14.9,21.6,7.6,-14.6,5.73,2.03,-8.4,28.0
2015-10-17 01:24:00,0.0,1.96344,0.00250,402.387,0.096,0.2411,0.0037,139.999,45.000,31719.35653,1.96803,403.561,36.313,45.068,45.000,0.00,0.09,-272.74,-272.81,-11,522,-942,21.3,7.2,-15.5,21.6,7.5,-14.9,5.73,1.75,-8.4,28.0
2015-10-17 01:25:00,0.0,1.96309,0.00215,402.335,0.077,0.2383,0.0018,140.000,45.000,31719.17552,1.96773,403.492,36.330,45.068,45.000,0.00,0.09,-272.74,-272.80,-10,522,-942,21.4,7.1,-15.6,21.6,7.3,-15.2,5.73,2.13,-8.3,28.0
2015-10-17 01:26:00,0.0,1.97008,0.00244,402.696,0.095,0.2412,0.0027,140.002,45.000,31720.48590,1.97452,403.864,36.337,45.068,45.000,0.00,0.09,-272.74,-272.81,-10,522,-942,21.4,7.3,-15.4,21.7,7.3,-15.2,5.73,1.77,-8.4,28.0
2015-10-17 01:27:00,0.0,1.97639,0.00187,402.889,0.083,0.2520,0.0043,139.999,45.000,31719.87627,1.98128,404.116,36.345,45.068,45.000,0.00,0.09,-272.75,-272.80,-11,522,-943,21.4,7.5,-15.0,21.6,7.5,-14.8,5.73,2.00,-8.4,28.0
2015-10-17 01:28:00,0.0,1.97668,0.00115,402.817,0.051,0.2631,0.0034,140.001,45.000,31721.78073,1.98177,404.099,36.355,45.068,45.000,0.00,0.09,-272.74,-272.80,-10,523,-942,21.4,7.9,-14.4,21.6,7.8,-14.4,5.73,1.98,-8.4,28.0
2015-10-17 01:29:00,0.0,1.97489,0.00149,402.639,0.083,0.2737,0.0035,140.000,45.000,31721.69536,1.98034,403.978,36.368,45.068,45.000,0.00,0.09,-272.75,-272.80,-10,522,-942,21.4,8.2,-14.0,21.6,8.1,-13.9,5.73,1.78,-8.3,28.0
2015-10-17 01:30:00,0.0,1.97286,0.00063,402.494,0.037,0.2830,0.0025,140.000,45.000,31720.92676,1.97846,403.876,36.374,45.068,45.000,0.00,0.09,-272.76,-272.81,-11,522,-942,21.4,8.4,-13.6,21.7,8.4,-13.5,5.73,2.13,-8.4,28.0
2015-10-17 01:31:00,0.0,1.97072,0.00171,401.924,0.371,0.2876,0.0025,139.997,45.000,31721.92398,1.97638,403.338,36.375,45.068,45.000,0.00,0.09,-272.74,-272.81,-10,523,-942,21.4,8.6,-13.4,21.6,8.6,-13.2,5.73,1.75,-8.4,28.0
2015-10-17 01:32:00,0.0,1.96926,0.00360,401.339,0.228,0.2921,0.0018,140.000,45.000,31723.20103,1.97495,402.762,36.375,45.068,45.000,0.00,0.09,-272.75,-272.80,-10,522,-942,21.4,8.7,-13.2,21.6,8.7,-13.1,5.73,2.03,-8.4,28.0
2015-10-17 01:33:00,0.0,1.96817,0.00119,401.282,0.104,0.2910,0.0014,139.999,45.000,31723.60191,1.97394,402.700,36.363,45.068,45.000,0.00,0.09,-272.75,-272.81,-11,523,-942,21.4,8.7,-13.3,21.6,8.7,-13.0,5.73,1.95,-8.3,28.0
2015-10-17 01:34:00,0.0,1.97138,0.00260,401.427,0.133,0.2927,0.0025,139.999,45.000,31723.87900,1.97688,402.845,36.338,45.068,45.000,0.00,0.09,-272.75,-272.80,-10,523,-943,21.4,8.8,-13.1,21.6,8.7,-13.0,5.73,1.80,-8.4,28.0
2015-10-17 01:35:00,0.0,1.97253,0.00213,401.490,0.049,0.2935,0.0020,139.998,45.000,31723.75986,1.97832,402.920,36.317,45.068,45.000,0.00,0.09,-272.75,-272.80,-10,522,-942,21.4,8.8,-13.1,21.6,8.8,-12.9,5.73,2.13,-8.3,28.0
2015-10-17 01:36:00,0.0,1.97363,0.00169,401.638,0.122,0.2937,0.0024,139.998,45.000,31722.73838,1.97942,403.068,36.313,45.068,45.000,0.00,0.09,-272.75,-272.81,-11,523,-943,21.4,8.8,-13.1,21.7,8.8,-12.9,5.73,1.73,-8.3,28.0
2015-10-17 01:37:00,0.0,1.97434,0.00223,401.605,0.123,0.3055,0.0035,139.998,45.000,31723.86104,1.98011,403.086,36.311,45.069,45.000,0.00,0.09,-272.75,-272.81,-10,523,-943,21.4,9.0,-12.7,21.7,9.0,-12.6,5.73,2.05,-8.3,28.0
2015-10-17 01:38:00,0.0,1.97088,0.00289,401.464,0.155,0.3049,0.0037,140.000,45.000,31724.52151,1.97714,402.956,36.296,45.069,45.000,0.00,0.09,-272.74,-272.81,-11,523,-943,21.4,9.0,-12.7,21.6,9.1,-12.5,5.73,1.92,-8.3,28.0
2015-10-17 01:39:00,0.0,1.97314,0.00236,401.590,0.100,0.3005,0.0030,139.998,45.000,31723.93678,1.97898,403.051,36.268,45.068,45.000,0.00,0.09,-272.74,-272.81,-11,523,-943,21.4,8.9,-12.9,21.7,9.0,-12.6,5.73,1.81,-8.3,28.0
2015-10-17 01:40:00,0.0,1.97259,0.00112,401.572,0.072,0.2983,0.0016,140.001,45.000,31724.84412,1.97831,403.022,36.253,45.069,45.001,0.00,0.09,-272.75,-272.81,-10,523,-943,21.5,8.8,-13.0,21.7,8.9,-12.7,5.73,2.12,-8.3,28.0
2015-10-17 01:41:00,0.0,1.97243,0.00144,401.635,0.049,0.2967,0.0017,139.997,45.000,31723.12298,1.97837,403.081,36.255,45.069,45.001,0.00,0.09,-272.74,-272.81,-11,522,-942,21.4,8.8,-13.0,21.7,8.9,-12.7,5.73,1.73,-8.4,28.0
2015-10-17 01:42:00,0.0,1.96489,0.00202,401.404,0.089,0.2885,0.0039,139.996,45.000,31723.89793,1.97078,402.815,36.251,45.069,45.001,0.00,0.09,-272.75,-272.80,-11,523,-942,21.4,8.6,-13.4,21.7,8.7,-12.9,5.73,2.06,-8.3,28.0
2015-10-17 01:43:00,0.0,1.96619,0.00139,401.403,0.054,0.2791,0.0029,139.998,45.000,31725.97294,1.97146,402.758,36.250,45.069,45.000,0.00,0.09,-272.75,-272.81,-10,523,-942,21.4,8.3,-13.7,21.7,8.5,-13.3,5.73,1.91,-8.3,28.0
2015-10-17 01:44:00,0.0,1.96583,0.00118,401.278,0.083,0.2728,0.0023,140.001,45.000,31726.63917,1.97127,402.609,36.250,45.069,45.000,0.00,0.09,-272.75,-272.81,-11,523,-942,21.4,8.1,-14.0,21.7,8.3,-13.6,5.73,1.82,-8.3,28.1
2015-10-17 01:45:00,0.0,1.96296,0.00073,401.022,0.067,0.2694,0.0019,139.999,45.000,31726.56526,1.96829,402.334,36.253,45.068,45.000,0.00,0.09,-272.75,-272.81,-11,523,-942,21.4,8.0,-14.2,21.7,8.1,-13.8,5.73,2.11,-8.3,28.1